Weather History for Valparaiso, FL

Change the Weather History Date:

Monday, February 17, 2014

  Actual Average Record
Temperature  
Mean Temperature 54 °F -  
Max Temperature 68 °F 65 °F 68 °F (2014)
Min Temperature 41 °F 44 °F 41 °F (2014)
Degree Days  
Heating Degree Days 10    
Growing Degree Days 4 (Base 50)    
Moisture  
Dew Point 53 °F    
Average Humidity 90    
Maximum Humidity 100    
Minimum Humidity 33    
Precipitation  
Precipitation 0.00 in - - ()
Sea Level Pressure  
Sea Level Pressure 30.18 in    
Wind  
Wind Speed 3 mph (SSE)    
Max Wind Speed 12 mph    
Max Gust Speed -    
Visibility 9 miles    
Events Fog    
Averages and records for this station are not official NWS values.
T = Trace of Precipitation, MM = Missing Value Source: NWS Daily Summary

Daily Weather History Graph

Daily Weather History Graph

Search for Another Location

Airport:

Trip Planner

Search our weather history database for the weather conditions in past years. The results will help you decide how hot, cold, wet, or windy it might be!

Date:

Astronomy

Feb. 17, 2014 Rise Set
Actual Time 6:24 AM CST 5:35 PM CST
Civil Twilight 6:00 AM CST 6:00 PM CST
Nautical Twilight 5:32 AM CST 6:28 PM CST
Astronomical Twilight 5:04 AM CST 6:56 PM CST
Moon 8:14 PM CST (2/17) 7:38 AM CST (2/17)
Length of Visible Light 12h 00m
Length of Day
11h 11m
Waning Gibbous, 93% of the Moon is Illuminated
Feb 17
Waning Gibbous
Feb 22
Last Quarter
Mar 1
New
Mar 8
First Quarter
Mar 16
Full

Hourly Weather History & Observations

Time (CST) Temp. Dew Point Humidity Pressure Visibility Wind Dir Wind Speed Gust Speed Precip Events Conditions
12:55 AM 44.6 °F 43.0 °F 94% 30.18 in 10.0 mi Calm Calm - N/A   Partly Cloudy
1:55 AM 43.0 °F 42.3 °F 97% 30.17 in 7.0 mi Calm Calm - N/A   Clear
2:56 AM 42.8 °F 41.9 °F 97% 30.16 in 7.0 mi North 2.3 mph - N/A   Clear
3:55 AM 41.5 °F 40.5 °F 96% 30.17 in 2.5 mi Calm Calm - N/A   Clear
4:55 AM 41.5 °F 40.5 °F 96% 30.19 in 2.0 mi North 1.2 mph - N/A   Clear
5:56 AM 41.7 °F 41.5 °F 99% 30.19 in 5.0 mi North 2.3 mph - N/A   Partly Cloudy
6:56 AM 43.9 °F 43.7 °F 99% 30.21 in 6.0 mi Calm Calm - N/A   Scattered Clouds
7:56 AM 52.5 °F 50.7 °F 94% 30.22 in 10.0 mi East 2.3 mph - N/A   Mostly Cloudy
8:55 AM 55.6 °F 53.8 °F 94% 30.22 in 10.0 mi East 3.5 mph - N/A   Overcast
9:55 AM 61.0 °F 57.2 °F 87% 30.22 in 10.0 mi SE 5.8 mph - N/A   Overcast
10:56 AM 64.9 °F 58.8 °F 81% 30.22 in 10.0 mi South 6.9 mph - N/A   Mostly Cloudy
11:55 AM 68.2 °F 59.7 °F 74% 30.19 in 10.0 mi SSE 10.4 mph - N/A   Mostly Cloudy
12:55 PM 67.5 °F 60.1 °F 77% 30.17 in 10.0 mi South 11.5 mph - N/A   Mostly Cloudy
1:55 PM 66.6 °F 60.4 °F 81% 30.18 in 10.0 mi South 8.1 mph - N/A   Mostly Cloudy
2:58 PM 65.7 °F 60.4 °F 83% 30.17 in 10.0 mi South 9.2 mph - N/A   Mostly Cloudy
3:56 PM 65.5 °F 60.6 °F 84% 30.16 in 10.0 mi South 8.1 mph - N/A   Mostly Cloudy
4:55 PM 64.2 °F 60.8 °F 89% 30.16 in 10.0 mi SE 8.1 mph - N/A   Mostly Cloudy
5:55 PM 61.7 °F 32.0 °F 33% 30.16 in 10.0 mi SSE 6.9 mph - N/A   Mostly Cloudy
6:59 PM 61.7 °F 60.6 °F 96% 30.17 in 10.0 mi SSE 5.8 mph - N/A   Mostly Cloudy
7:22 PM 60.8 °F 60.8 °F 100% 30.16 in 10.0 mi SSE 4.6 mph - N/A   Mostly Cloudy
7:55 PM 61.2 °F 61.0 °F 99% 30.17 in 10.0 mi SSE 6.9 mph - N/A   Mostly Cloudy
8:55 PM 61.7 °F 61.7 °F 100% 30.19 in 10.0 mi Calm Calm - N/A   Mostly Cloudy
9:55 PM 61.2 °F 61.2 °F 100% 30.20 in 10.0 mi SSE 2.3 mph - N/A   Mostly Cloudy
10:50 PM 59.0 °F 59.0 °F 100% 30.17 in 10.0 mi South 4.6 mph - N/A   Partly Cloudy
10:55 PM 59.5 °F 59.5 °F 100% 30.18 in 10.0 mi South 4.6 mph - N/A   Partly Cloudy
11:55 PM 60.4 °F 59.0 °F 95% 30.18 in 7.0 mi SW 2.3 mph - N/A Fog Shallow Fog